This demonstration page uses our WeatherBlox Daily Observations layout. Learn more.

Left ArrowRight Arrow

Hourly Observations for October 15, 2022

Temp ( °F °C ) Dew Point ( °F °C ) Humidity (%) Winds ( mph kmh ) Pressure ( in mb ) Visibility ( mi km ) Precip ( " mm )
12:53 am 00:53 Clear 58 14.4 39 3.9 49 49 NW 21 33 29.99 1016 10 16 0.00 0.00
1:53 am 01:53 Mostly Clear 54 12.2 39 3.9 57 57 NW 18 30 30.01 1016 10 16 0.00 0.00
2:53 am 02:53 Cloudy 53 11.7 40 4.4 61 61 NW 14 22 30.05 1018 N/A 0.00 0.00
3:53 am 03:53 Cloudy 51 10.6 44 6.7 77 77 NW 15 24 30.08 1019 N/A 0.00 0.00
4:53 am 04:53 Cloudy 50 10 43 6.1 77 77 NW 16 26 30.11 1020 N/A 0.00 0.00
5:53 am 05:53 Cloudy 50 10 41 5 71 71 NW 16 26 30.16 1021 N/A 0.00 0.00
6:53 am 06:53 Partly Cloudy 44 6.7 39 3.9 82 82 W 7 11 30.19 1022 N/A 0.00 0.00
7:53 am 07:53 Sunny 41 5 38 3.3 89 89 W 7 11 30.22 1023 N/A 0.00 0.00
8:53 am 08:53 Sunny 47 8.3 39 3.9 74 74 WNW 15 24 30.23 1024 N/A 0.00 0.00
9:53 am 09:53 Sunny 50 10 39 3.9 66 66 WNW 16 26 30.25 1024 N/A 0.00 0.00
10:53 am 10:53 Sunny with Light Rain 52 11.1 38 3.3 59 59 WNW 14 22 30.26 1025 N/A 0.01 0.13
11:53 am 11:53 Sunny with Light Rain 55 12.8 35 1.7 47 47 NW 17 28 30.26 1025 N/A 0.01 0.13
12:53 pm 12:53 Sunny with Light Rain 58 14.4 34 1.1 40 40 NW 18 30 30.26 1025 N/A 0.01 0.13
1:53 pm 13:53 Sunny with Light Rain 59 15 33 0.6 37 37 NNW 15 24 30.26 1025 N/A 0.01 0.13
2:53 pm 14:53 Sunny 60 15.6 31 -0.6 33 33 NW 13 20 30.25 1024 N/A 0.01 0.13
3:53 pm 15:53 Sunny 61 16.1 31 -0.6 32 32 NW 16 26 30.25 1024 N/A 0.00 0.00
4:53 pm 16:53 Sunny 61 16.1 30 -1.1 31 31 NNW 13 20 30.26 1025 N/A 0.00 0.00
5:53 pm 17:53 Sunny 59 15 29 -1.7 32 32 NNW 10 17 30.28 1025 N/A 0.00 0.00
6:53 pm 18:53 Clear 54 12.2 30 -1.1 40 40 NNW 6 9 30.30 1026 N/A 0.00 0.00
7:53 pm 19:53 Clear 51 10.6 30 -1.1 44 44 N 6 9 30.32 1027 N/A 0.00 0.00
8:53 pm 20:53 Clear 50 10 29 -1.7 44 44 Calm 30.32 1027 N/A 0.00 0.00
9:53 pm 21:53 Clear 40 4.4 26 -3.3 57 57 Calm 30.35 1028 N/A 0.00 0.00
10:53 pm 22:53 Clear 39 3.9 26 -3.3 59 59 Calm 30.34 1028 N/A 0.00 0.00
11:53 pm 23:53 Clear 40 4.4 27 -2.8 59 59 Calm 30.33 1027 N/A 0.00 0.00

Powered by AerisWeather